World > North America > United States > Ohio

Sedalia, Ohio Regional Weather

Lat: 39.90N, Lon: 83.43W
Wx Zone: OHZ054Web Search

Helpful Tip: Abbreviated, 7 Day, 14 Day Forecasts. There is a weather forecast for every taste.

Feedback


°F Click to change Sedalia hourly weather to Imperial units.Click to change Sedalia hourly weather to Metric units. °C
Sedalia Weather Map
UTC Time: 5/18/2021, 09:58
Your Time:

Sedalia, OH Regional Weather

Expires:202105181000;;302215
ASUS41 KCLE 180912
RWRCLE
OHIO REGIONAL WEATHER ROUNDUP
NATIONAL WEATHER SERVICE WILMINGTON, OH
500 AM EDT TUE MAY 18 2021

NOTE: "FAIR" INDICATES FEW OR NO CLOUDS BELOW 12,000 FEET WITH NO
SIGNIFICANT WEATHER AND/OR OBSTRUCTIONS TO VISIBILITY.


OHZ036-037-039>041-045>050-054>059-063>069-073>076-082>088-181000-
  CENTRAL AND SOUTHEAST OHIO
  
CITY           SKY/WX    TMP DP  RH WIND       PRES   REMARKS
COLUMBUS       CLOUDY    57  54  89 E6        30.27R                  
OSU AIRPORT    CLOUDY    56  52  86 E3        30.27R                  
BOLTON FIELD   FAIR      54  53  95 CALM      30.28R                  
RICKENBACK AFB FAIR      54  54 100 CALM      30.27R                  
NEWARK         FAIR      51  50  96 CALM      30.28S FOG              
MARION         FAIR      51  48  89 CALM      30.30R                  
LANCASTER      MOCLDY    52  51  97 CALM      30.28S FOG              
ZANESVILLE     FAIR      51  49  92 CALM      30.29S FOG              
NEW PHILLY     FAIR      47  46  97 CALM      30.31R                  
$$
  

SKY/WX - Weather  TMP - Temperature  DP - Dew Point  RH - Relative Humidity
WIND - Wind Direction/Speed PRES - Barometric Pressure VSB - Visibility
WCI - Wind Chill Index E13G22 Wind - East Wind 13 mph/Gusts of 22 mph